EW6122 Weather Reports


Display with metric or nautical units.
time (UTC)temp
F
wind
direction
speed
MPH
gust
MPH
rain 1hr
in
rain 24hr
in
rain mn
in
humidity
%
barometer
mb
20260510191535 68 198 3.0 10.0 0.00 0.53 0.00 67 1009.8
20260510191530 69 229 2.0 10.0 0.00 0.52 0.00 67 1010.2
20260510190031 69 224 2.0 14.0 0.00 0.52 0.00 63 1010.3
20260510184530 69 229 5.0 19.0 0.00 0.60 0.00 65 1010.4
20260510183044 68 182 2.0 11.0 0.00 0.60 0.00 67 1010.4
20260510183028 68 239 3.0 9.0 0.00 0.60 0.00 68 1010.0
20260510181534 68 155 2.0 9.0 0.00 0.60 0.00 70 1010.4
20260510181528 68 150 2.0 9.0 0.00 0.60 0.00 70 1009.9
20260510180045 67 140 2.0 9.0 0.00 0.60 0.00 68 1010.0
20260510180030 67 140 2.0 11.0 0.00 0.60 0.00 68 1010.5
20260510174550 69 157 3.0 8.0 0.00 0.60 0.00 68 1010.1
20260510174532 69 226 2.0 8.0 0.00 0.60 0.00 68 1010.5
20260510173042 68 254 1.0 9.0 0.00 0.60 0.00 70 1010.0
20260510173031 68 254 2.0 9.0 0.00 0.60 0.00 68 1010.3
20260510171541 68 217 4.0 13.0 0.00 0.60 0.00 69 1010.1
20260510171531 68 217 3.0 13.0 0.00 0.60 0.00 69 1010.5
20260510170042 67 132 2.0 7.0 0.00 0.60 0.00 75 1010.4
20260510170032 66 130 2.0 7.0 0.00 0.60 0.00 74 1010.7
20260510164542 66 0 0.0 0.0 0.00 0.60 0.00 75 1010.8
20260510164539 66 225 0.0 0.0 0.00 0.60 0.00 76 1010.4
20260510163038 67 133 0.0 0.0 0.00 0.60 0.00 72 1010.4
20260510163030 67 0 0.0 0.0 0.00 0.60 0.00 69 1010.8
20260510161535 66 239 0.0 0.0 0.00 0.60 0.00 76 1010.6
20260510161530 65 0 0.0 0.0 0.00 0.60 0.00 75 1011.0
20260510160052 64 190 0.0 0.0 0.00 0.60 0.00 80 1010.6
20260510160036 64 0 0.0 0.0 0.00 0.60 0.00 79 1011.0
20260510154548 63 131 0.0 0.0 0.00 0.60 0.00 79 1010.9
20260510154540 63 0 0.0 0.0 0.00 0.60 0.00 79 1011.3
20260510153044 63 166 0.0 0.0 0.00 0.60 0.00 80 1011.1
20260510153039 63 0 0.0 0.0 0.00 0.60 0.00 80 1011.4
20260510151541 62 168 0.0 0.0 0.00 0.60 0.00 82 1011.1
20260510151531 62 0 0.0 0.0 0.00 0.60 0.00 81 1011.3
20260510150045 61 156 0.0 0.0 0.00 0.60 0.00 85 1011.2
20260510150034 61 0 0.0 0.0 0.00 0.60 0.00 85 1011.4
20260510144541 61 158 0.0 0.0 0.00 0.60 0.00 85 1011.0
20260510144532 60 0 0.0 0.0 0.00 0.60 0.00 84 1011.3
20260510143038 60 194 0.0 3.0 0.00 0.60 0.00 87 1011.0
20260510143036 59 0 0.0 3.0 0.00 0.60 0.00 86 1011.3
20260510141535 57 135 0.0 0.0 0.00 0.60 0.00 91 1011.1
20260510141532 57 0 0.0 0.0 0.00 0.60 0.00 91 1011.4
20260510140058 56 132 0.0 0.0 0.00 0.60 0.00 91 1011.1
20260510140031 56 0 0.0 0.0 0.00 0.60 0.00 91 1011.4
20260510134557 55 121 0.0 0.0 0.00 0.60 0.00 92 1011.1
20260510134531 55 0 0.0 0.0 0.00 0.60 0.00 92 1011.3
20260510133048 54 188 0.0 0.0 0.00 0.60 0.00 92 1010.9
20260510133038 54 0 0.0 0.0 0.00 0.60 0.00 91 1011.2
20260510131547 54 191 0.0 0.0 0.00 0.60 0.00 93 1011.0
20260510131531 54 0 0.0 0.0 0.00 0.60 0.00 92 1011.3
20260510130045 54 191 0.0 0.0 0.00 0.60 0.00 92 1011.1
20260510130032 54 0 0.0 0.0 0.00 0.60 0.00 91 1011.4
20260510124554 53 192 0.0 0.0 0.00 0.60 0.00 93 1011.1
20260510124530 53 0 0.0 0.0 0.00 0.60 0.00 93 1011.4
20260510123041 53 191 0.0 0.0 0.00 0.60 0.00 94 1010.9
20260510123035 53 0 0.0 0.0 0.00 0.60 0.00 93 1011.2
20260510121538 53 191 0.0 0.0 0.00 0.60 0.00 94 1010.8
20260510121532 53 0 0.0 0.0 0.00 0.60 0.00 93 1011.1
20260510120039 52 148 0.0 0.0 0.00 0.60 0.00 95 1010.7
20260510120033 52 0 0.0 2.0 0.00 0.60 0.00 95 1011.0
20260510114540 52 148 1.0 4.0 0.00 0.60 0.00 97 1010.6
20260510114534 52 148 1.0 5.0 0.00 0.60 0.00 96 1010.9
20260510113041 52 163 0.0 2.0 0.00 0.60 0.00 97 1010.8
20260510113036 52 163 0.0 2.0 0.00 0.60 0.00 97 1010.5
20260510111531 51 163 0.0 2.0 0.00 0.60 0.00 97 1010.4
20260510110050 51 163 0.0 5.0 0.00 0.60 0.00 97 1010.2
20260510110030 51 0 0.0 5.0 0.00 0.60 0.00 97 1010.4
20260510104545 51 185 1.0 4.0 0.00 0.61 0.00 97 1010.2
20260510104532 51 185 1.0 4.0 0.00 0.61 0.00 97 1010.4
20260510103051 51 182 0.0 3.0 0.00 0.61 0.00 97 1010.2
20260510103029 51 0 0.0 3.0 0.00 0.61 0.00 97 1010.4
20260510101548 50 188 0.0 3.0 0.00 0.61 0.00 97 1009.8
20260510101531 50 188 0.0 3.0 0.00 0.61 0.00 97 1010.1
20260510100040 50 190 0.0 2.0 0.00 0.61 0.00 97 1010.0
20260510100031 50 190 1.0 2.0 0.00 0.61 0.00 97 1010.2
20260510094542 50 190 0.0 1.0 0.00 0.61 0.00 97 1010.1
20260510094530 50 0 0.0 2.0 0.00 0.61 0.00 97 1010.4
20260510093035 50 190 0.0 3.0 0.00 0.61 0.00 97 1010.0
20260510093032 50 190 0.0 5.0 0.00 0.61 0.00 96 1010.2
20260510091533 51 192 0.0 2.0 0.00 0.61 0.00 97 1010.0
20260510090053 51 194 0.0 3.0 0.00 0.61 0.00 97 1010.1
20260510090030 51 221 0.0 2.0 0.00 0.61 0.00 97 1010.3
20260510084550 51 243 1.0 4.0 0.00 0.64 0.00 97 1010.4
20260510084533 51 243 1.0 4.0 0.00 0.64 0.00 97 1010.7
20260510083051 51 187 0.0 3.0 0.00 0.64 0.00 98 1010.1
20260510083033 51 0 0.0 3.0 0.00 0.64 0.00 97 1010.3
20260510081555 51 186 0.0 3.0 0.00 0.64 0.00 98 1010.1
20260510081538 51 0 0.0 6.0 0.00 0.64 0.00 97 1010.3
20260510080044 51 181 0.0 2.0 0.00 0.64 0.00 98 1010.1
20260510080031 51 0 0.0 1.0 0.00 0.64 0.00 97 1010.3
20260510074542 51 181 0.0 2.0 0.00 0.64 0.00 98 1009.7
20260510074532 51 0 0.0 2.0 0.00 0.64 0.00 97 1010.0
20260510073041 51 181 0.0 2.0 0.00 0.64 0.00 98 1009.7
20260510073034 51 0 0.0 2.0 0.00 0.64 0.00 97 1010.0
20260510071541 51 181 1.0 3.0 0.00 0.64 0.00 98 1009.8
20260510071532 51 181 0.0 3.0 0.00 0.64 0.00 97 1010.0
20260510070045 51 180 0.0 1.0 0.00 0.64 0.00 98 1009.8
20260510070031 51 180 0.0 1.0 0.00 0.64 0.00 98 1010.0
20260510064541 51 0 0.0 1.0 0.00 0.64 0.00 97 1010.1
20260510064536 51 180 0.0 0.0 0.00 0.64 0.00 98 1009.8
20260510063038 51 0 0.0 1.0 0.00 0.64 0.00 97 1009.9
20260510063036 52 180 0.0 1.0 0.00 0.64 0.00 98 1009.7
20260510061536 51 180 0.0 0.0 0.00 0.64 0.00 98 1009.3
20260510061529 51 0 0.0 1.0 0.00 0.64 0.00 97 1009.5
20260510060043 51 180 1.0 5.0 0.00 0.64 0.00 98 1009.4
20260510060032 51 180 1.0 5.0 0.00 0.64 0.00 97 1009.5
20260510054555 52 238 0.0 1.0 0.00 0.64 0.00 98 1009.5
20260510054532 52 238 0.0 1.0 0.00 0.64 0.00 97 1009.7
20260510053041 52 238 0.0 1.0 0.00 0.64 0.00 98 1009.6
20260510053037 52 0 0.0 2.0 0.00 0.64 0.00 98 1009.8
20260510051540 52 238 0.0 0.0 0.00 0.64 0.00 98 1009.6
20260510051532 52 0 0.0 0.0 0.00 0.64 0.00 98 1009.7
20260510050043 52 238 0.0 2.0 0.00 0.64 0.00 98 1009.6
20260510050030 52 238 0.0 2.0 0.00 0.64 0.00 98 1009.7
20260510044545 52 238 0.0 2.0 0.00 0.64 0.00 98 1009.7
20260510043036 52 238 0.0 0.0 0.00 0.64 0.00 98 1009.6
20260510043034 52 0 0.0 0.0 0.00 0.64 0.00 97 1009.7
20260510041544 52 238 0.0 2.0 0.00 0.64 0.00 98 1009.4
20260510041531 52 0 0.0 2.0 0.00 0.64 0.00 97 1009.6
20260510040039 52 238 0.0 2.0 0.00 0.64 0.00 98 1009.3
20260510040031 52 238 0.0 2.0 0.00 0.64 0.00 97 1009.5
20260510034536 52 0 0.0 2.0 0.00 0.64 0.64 97 1009.6
20260510034534 52 238 0.0 1.0 0.00 0.64 0.64 98 1009.4
20260510033032 52 238 0.0 2.0 0.00 0.64 0.64 98 1009.5
20260510031547 52 237 1.0 4.0 0.00 0.64 0.64 97 1009.7
20260510031534 52 237 1.0 4.0 0.00 0.64 0.64 97 1009.8
20260510030036 52 192 1.0 3.0 0.00 0.64 0.64 97 1009.7
20260510030031 52 192 1.0 3.0 0.00 0.64 0.64 97 1009.9
20260510024532 52 186 1.0 4.0 0.00 0.64 0.64 97 1009.7
20260510024530 52 186 1.0 4.0 0.00 0.64 0.64 97 1009.4
20260510023033 52 182 1.0 8.0 0.00 0.64 0.64 97 1009.5
20260510023029 52 168 1.0 6.0 0.00 0.64 0.64 97 1009.4
20260510021537 52 210 2.0 8.0 0.00 0.64 0.64 97 1009.7
20260510021531 52 190 2.0 8.0 0.00 0.64 0.64 97 1009.5
20260510020044 52 163 1.0 5.0 0.00 0.64 0.64 97 1009.7
20260510020033 52 163 1.0 6.0 0.00 0.64 0.64 96 1009.9
20260510014547 52 188 1.0 5.0 0.00 0.64 0.64 97 1009.6
20260510014533 52 188 1.0 5.0 0.00 0.64 0.64 96 1009.8
20260510013057 53 190 0.0 6.0 0.00 0.64 0.64 97 1009.6
20260510013031 53 190 0.0 7.0 0.00 0.64 0.64 97 1009.7
20260510011542 53 125 1.0 7.0 0.01 0.64 0.64 97 1009.4
20260510011533 53 143 2.0 7.0 0.01 0.64 0.64 97 1009.6
20260510010038 53 138 1.0 4.0 0.01 0.64 0.64 97 1009.2
20260510010032 53 138 1.0 4.0 0.01 0.64 0.64 97 1009.4
20260510004545 53 130 0.0 3.0 0.01 0.64 0.64 97 1009.2
20260510004532 53 130 0.0 3.0 0.01 0.64 0.64 97 1009.4
20260510003037 53 136 1.0 3.0 0.01 0.64 0.64 97 1008.8
20260510003032 53 136 1.0 3.0 0.01 0.64 0.64 97 1009.0
20260510001536 53 142 0.0 3.0 0.00 0.63 0.63 97 1008.7
20260510001529 53 0 0.0 3.0 0.00 0.63 0.63 97 1008.9
20260510000034 53 146 0.0 5.0 0.01 0.63 0.63 97 1008.7
20260509234535 53 158 2.0 5.0 0.03 0.63 0.63 97 1009.0
20260509233032 53 153 0.0 2.0 0.05 0.63 0.63 97 1009.0
20260509233030 53 152 0.0 2.0 0.05 0.63 0.63 97 1008.8
20260509231531 53 0 1.0 7.0 0.07 0.63 0.63 97 1009.5
20260509231528 53 134 1.0 7.0 0.07 0.63 0.63 97 1009.2
20260509230044 53 114 1.0 4.0 0.08 0.62 0.62 97 1009.2
20260509230030 53 113 1.0 4.0 0.08 0.62 0.62 97 1009.5
20260509224544 53 182 1.0 5.0 0.08 0.60 0.60 97 1009.4
20260509224535 53 148 1.0 5.0 0.08 0.60 0.60 97 1009.7
20260509223047 53 92 0.0 3.0 0.07 0.57 0.57 97 1009.3
20260509223031 53 92 0.0 3.0 0.07 0.58 0.58 96 1009.4
20260509221545 52 65 0.0 1.0 0.06 0.56 0.56 97 1009.7
20260509221532 52 0 0.0 2.0 0.06 0.56 0.56 96 1009.9
20260509220033 52 64 0.0 2.0 0.04 0.54 0.54 97 1009.9
20260509220031 52 0 0.0 2.0 0.04 0.54 0.54 96 1010.1
20260509214532 52 63 0.0 3.0 0.04 0.52 0.52 96 1010.0
20260509213032 52 324 0.0 2.0 0.04 0.51 0.51 96 1009.8
20260509213030 52 323 0.0 2.0 0.04 0.51 0.51 96 1009.9
20260509211533 52 323 0.0 4.0 0.05 0.50 0.50 96 1009.5
20260509211530 52 323 0.0 4.0 0.05 0.50 0.50 96 1009.7
20260509210054 53 335 3.0 5.0 0.08 0.50 0.50 96 1009.1
20260509210033 53 323 2.0 5.0 0.08 0.50 0.50 96 1009.4
20260509204547 52 61 1.0 2.0 0.08 0.48 0.48 96 1009.8
20260509204529 52 61 0.0 2.0 0.08 0.48 0.48 96 1010.0
20260509203045 52 78 0.0 2.0 0.17 0.47 0.47 96 1009.8
20260509203032 52 78 0.0 2.0 0.16 0.47 0.47 95 1010.0
20260509201544 52 79 0.0 2.0 0.25 0.45 0.45 96 1009.9
20260509201530 52 0 0.0 2.0 0.24 0.45 0.45 95 1010.0
20260509200047 52 78 0.0 5.0 0.31 0.42 0.42 96 1009.8
20260509200030 52 0 0.0 5.0 0.30 0.42 0.42 95 1009.9
20260509194538 52 30 2.0 4.0 0.33 0.40 0.40 95 1009.7
20260509194530 52 27 1.0 3.0 0.33 0.40 0.40 95 1009.9
20260509193036 52 262 1.0 6.0 0.26 0.30 0.30 94 1010.3
20260509193032 52 291 1.0 6.0 0.26 0.30 0.30 94 1010.4